#timestamp,LO_Frequency,Hit,Temp,Hum 
1487930415.0,286046977.2,N,0.0,0.0
1487930415.9,286046977.2,N,0.0,0.0
1487930435.7,286046976.4,N,0.0,0.0
1487930455.6,286046976.9,N,0.0,0.0
1487930475.4,286046975.0,N,0.0,0.0
1487930495.2,286046974.1,N,0.0,0.0
1487930515.1,286046975.8,N,0.0,0.0
1487930516.0,286046975.8,N,0.0,0.0
1487930535.8,286046978.1,N,0.0,0.0
1487930555.6,286046977.5,N,0.0,0.0
1487930575.5,286046980.3,N,0.0,0.0
1487930595.3,286046979.7,N,0.0,0.0
1487930615.1,286046979.3,N,0.0,0.0
1487930635.9,286046979.5,N,0.0,0.0
1487930655.7,286046978.4,N,0.0,0.0
1487930675.5,286046979.5,N,0.0,0.0
1487930695.4,286046980.2,N,0.0,0.0
1487930715.2,286046979.0,N,0.0,0.0
1487930735.0,286046985.1,N,0.0,0.0
1487930735.9,286046985.1,N,0.0,0.0
1487930755.8,286046986.7,N,0.0,0.0
1487930775.6,286046986.2,N,0.0,0.0
1487930795.4,286046983.8,N,0.0,0.0
1487930815.3,286046985.9,N,0.0,0.0
1487930835.1,286046985.8,N,0.0,0.0
1487930836.0,286046985.8,N,0.0,0.0
1487930855.8,286046977.4,N,0.0,0.0
1487930875.7,286046988.0,N,0.0,0.0
1487930895.5,286046987.1,N,0.0,0.0
1487930915.3,286046983.8,N,0.0,0.0
1487930935.2,286046984.2,N,0.0,0.0
1487930955.9,286046983.7,N,0.0,0.0
1487930975.7,286046984.1,N,0.0,0.0
1487930995.6,286046987.3,N,0.0,0.0
1487931015.4,286046988.2,N,0.0,0.0
1487931035.2,286046986.5,N,0.0,0.0
1487931055.0,286046988.2,N,0.0,0.0
1487931056.0,286046988.2,N,0.0,0.0
1487931075.8,286046987.1,N,0.0,0.0
1487931095.6,286046988.0,N,0.0,0.0
1487931115.4,286046987.6,N,0.0,0.0
1487931135.3,286046987.5,N,0.0,0.0
1487931155.1,286046987.6,N,0.0,0.0
1487931175.0,286046988.7,N,0.0,0.0
1487931175.9,286046988.7,N,0.0,0.0
1487931195.8,286046991.3,N,0.0,0.0
1487931215.6,286046991.1,N,0.0,0.0
1487931235.4,286046990.6,N,0.0,0.0
1487931255.2,286046990.9,N,0.0,0.0
1487931275.1,286046993.2,N,0.0,0.0
1487931276.0,286046993.2,N,0.0,0.0
1487931295.8,286046994.3,N,0.0,0.0
1487931315.7,286046992.0,N,0.0,0.0
1487931335.5,286046990.5,N,0.0,0.0
1487931355.3,286046992.7,N,0.0,0.0
1487931375.1,286046991.7,N,0.0,0.0
1487931395.9,286046994.8,N,0.0,0.0
1487931415.7,286046992.0,N,0.0,0.0
1487931435.5,286046992.3,N,0.0,0.0
1487931455.4,286046994.4,N,0.0,0.0
1487931475.2,286046993.3,N,0.0,0.0
1487931495.0,286046993.5,N,0.0,0.0
1487931495.9,286046993.5,N,0.0,0.0
1487931515.8,286046994.8,N,0.0,0.0
1487931535.6,286046992.1,N,0.0,0.0
1487931555.4,286046991.8,N,0.0,0.0
1487931575.3,286046992.3,N,0.0,0.0
1487931595.1,286046992.5,N,0.0,0.0
1487931596.0,286046992.5,N,0.0,0.0
1487931615.8,286046992.3,N,0.0,0.0
1487931635.7,286046990.1,N,0.0,0.0
1487931655.0,286046989.8,N,0.0,0.0
1487931655.9,286046989.8,N,0.0,0.0
1487931675.8,286046987.0,N,0.0,0.0
1487931695.6,286046992.5,N,0.0,0.0
1487931715.4,286046992.4,N,0.0,0.0
1487931735.3,286046990.9,N,0.0,0.0
1487931755.1,286046993.1,N,0.0,0.0
1487931775.8,286046989.5,N,0.0,0.0
1487931795.7,286046989.9,N,0.0,0.0
1487931815.5,286046986.9,N,0.0,0.0
1487931835.3,286046990.0,N,0.0,0.0
1487931855.2,286046989.5,N,0.0,0.0
1487931875.9,286046989.1,N,0.0,0.0
1487931895.7,286046989.2,N,0.0,0.0
1487931915.6,286046985.7,N,0.0,0.0
1487931935.4,286046988.2,N,0.0,0.0
1487931955.2,286046991.2,N,0.0,0.0
1487931975.1,286046992.8,N,0.0,0.0
1487931976.0,286046992.8,N,0.0,0.0
1487931995.8,286046994.4,N,0.0,0.0
1487932015.6,286046993.7,N,0.0,0.0
1487932035.5,286046995.1,N,0.0,0.0
1487932055.3,286046993.4,N,0.0,0.0
1487932075.1,286046994.7,N,0.0,0.0
1487932095.8,286046997.2,N,0.0,0.0
1487932115.7,286046993.3,N,0.0,0.0
1487932135.5,286046993.7,N,0.0,0.0
1487932155.3,286046995.0,N,0.0,0.0
1487932175.7,286046996.6,N,0.0,0.0
1487932195.5,286046993.3,N,0.0,0.0
1487932215.3,286046997.8,N,0.0,0.0
1487932235.2,286046997.2,N,0.0,0.0
1487932255.9,286046998.1,N,0.0,0.0
1487932275.7,286047002.1,N,0.0,0.0
1487932295.6,286047001.8,N,0.0,0.0
1487932315.4,286047003.4,N,0.0,0.0
1487932335.2,286047000.4,N,0.0,0.0
1487932355.1,286046999.5,N,0.0,0.0
1487932356.0,286046999.5,N,0.0,0.0
1487932375.8,286046998.7,N,0.0,0.0
1487932395.6,286046999.3,N,0.0,0.0
1487932415.5,286046999.1,N,0.0,0.0
1487932435.3,286046996.5,N,0.0,0.0
1487932455.1,286046996.9,N,0.0,0.0
1487932475.9,286046998.4,N,0.0,0.0
1487932495.7,286047001.0,N,0.0,0.0
1487932515.5,286047001.9,N,0.0,0.0
1487932535.4,286047002.4,N,0.0,0.0
1487932555.2,286047003.5,N,0.0,0.0
1487932575.0,286047002.3,N,0.0,0.0
1487932575.9,286047002.3,N,0.0,0.0
1487932595.8,286047001.0,N,0.0,0.0
1487932615.6,286047000.2,N,0.0,0.0
1487932635.4,286047001.8,N,0.0,0.0
1487932655.3,286047001.8,N,0.0,0.0
1487932675.1,286047003.6,N,0.0,0.0
1487932676.0,286047003.6,N,0.0,0.0
1487932695.8,286047001.4,N,0.0,0.0
1487932715.6,286046998.1,N,0.0,0.0
1487932735.5,286047000.9,N,0.0,0.0
1487932755.3,286047002.6,N,0.0,0.0
1487932775.1,286047003.5,N,0.0,0.0
1487932795.9,286047001.6,N,0.0,0.0
1487932815.7,286047003.7,N,0.0,0.0
1487932835.5,286047007.3,N,0.0,0.0
1487932855.4,286047006.8,N,0.0,0.0
1487932875.2,286047007.8,N,0.0,0.0
1487932895.0,286047011.9,N,0.0,0.0
1487932895.9,286047011.9,N,0.0,0.0
1487932915.8,286047011.4,N,0.0,0.0
1487932935.6,286047012.5,N,0.0,0.0
1487932955.4,286047014.8,N,0.0,0.0
1487932975.3,286047013.5,N,0.0,0.0
1487932995.1,286047009.3,N,0.0,0.0
1487933015.8,286047009.7,N,0.0,0.0
1487933035.7,286047014.0,N,0.0,0.0
1487933055.5,286047011.4,N,0.0,0.0
1487933075.3,286047015.6,N,0.0,0.0
1487933095.2,286047013.1,N,0.0,0.0
1487933115.9,286047014.4,N,0.0,0.0
1487933135.7,286047014.9,N,0.0,0.0
1487933155.6,286047015.2,N,0.0,0.0
1487933175.4,286047015.4,N,0.0,0.0
1487933195.2,286047014.9,N,0.0,0.0
1487933215.1,286047016.5,N,0.0,0.0
1487933216.0,286047016.5,N,0.0,0.0
1487933235.8,286047017.0,N,0.0,0.0
1487933255.6,286047016.4,N,0.0,0.0
1487933275.5,286047014.2,N,0.0,0.0
1487933295.3,286047017.1,N,0.0,0.0
1487933315.1,286047016.8,N,0.0,0.0
1487933335.8,286047014.8,N,0.0,0.0
1487933355.7,286047015.8,N,0.0,0.0
1487933375.5,286047016.0,N,0.0,0.0
1487933395.3,286047013.0,N,0.0,0.0
1487933415.2,286047014.7,N,0.0,0.0
1487933435.0,286047013.8,N,0.0,0.0
1487933435.9,286047013.8,N,0.0,0.0
1487933455.7,286047015.5,N,0.0,0.0
1487933475.6,286047014.9,N,0.0,0.0
1487933495.4,286047008.4,N,0.0,0.0
1487933515.2,286047009.5,N,0.0,0.0
1487933535.1,286047009.3,N,0.0,0.0
1487933536.0,286047009.3,N,0.0,0.0
1487933555.8,286047009.0,N,0.0,0.0
1487933575.6,286047010.1,N,0.0,0.0
1487933595.5,286047008.0,N,0.0,0.0
1487933615.3,286047006.7,N,0.0,0.0
1487933635.1,286047009.2,N,0.0,0.0
1487933655.9,286047003.6,N,0.0,0.0
1487933675.7,286047002.9,N,0.0,0.0
1487933695.5,286047007.0,N,0.0,0.0
1487933715.4,286047004.8,N,0.0,0.0
1487933735.2,286047001.9,N,0.0,0.0
1487933755.0,286047004.0,N,0.0,0.0
1487933755.9,286047004.0,N,0.0,0.0
1487933775.8,286047002.7,N,0.0,0.0
1487933795.6,286047002.4,N,0.0,0.0
1487933815.4,286047001.3,N,0.0,0.0
1487933835.2,286047000.1,N,0.0,0.0
1487933855.1,286047000.6,N,0.0,0.0
1487933856.0,286047000.6,N,0.0,0.0
1487933875.8,286047002.7,N,0.0,0.0
1487933895.6,286046999.0,N,0.0,0.0
1487933915.5,286046998.7,N,0.0,0.0
1487933935.3,286046996.9,N,0.0,0.0
1487933955.1,286046999.4,N,0.0,0.0
1487933975.9,286046997.5,N,0.0,0.0
1487933995.7,286046995.1,N,0.0,0.0
